Sauk Centre, MN

6:20 PM CST on December 15, 2019 (GMT -0600)
Sauk Centre

Weather History for KD39 - October, 2019

Change the Weather History Date:

Sunday, October 20, 2019

  Actual Average (WUND) Record (WUND)
Temperature  
Mean Temperature 44 °F -  
Max Temperature 58 °F - - (-1)
Min Temperature 30 °F - - (-1)
Degree Days  
Heating Degree Days 21    
Moisture  
Dew Point 36 °F    
Average Humidity 68    
Maximum Humidity 94    
Minimum Humidity 46    
Precipitation  
Precipitation 0.00 in - - ()
Sea Level Pressure  
Sea Level Pressure 29.78 in    
Wind  
Wind Speed 3 mph ()    
Max Wind Speed 12 mph    
Max Gust Speed 17 mph    
Visibility 10.0 miles    
Events      
Averages and records for this station are not official NWS values.
T = Trace of Precipitation, MM = Missing Value Source: Averaged Metar Reports

Daily Weather History Graph

Daily Weather History Graph

Search for Another Location

Airport or City:

Astronomy

Oct. 20, 2019 Rise Set
Actual Time 7:42 AM CDT 6:25 PM CDT
Civil Twilight 7:12 AM CDT 6:55 PM CDT
Nautical Twilight 6:37 AM CDT 7:30 PM CDT
Astronomical Twilight 6:03 AM CDT 8:04 PM CDT
Moon 11:23 PM CDT (10/20) 2:24 PM CDT (10/20)
Length of Visible Light 11h 43m
Length of Day
10h 42m
Waning Gibbous, 59% of the Moon is Illuminated
Oct 20
Waning Gibbous
Oct 21
Last Quarter
Oct 27
New
Nov 4
First Quarter
Nov 12
Full

Hourly Weather History & Observations

Time (CDT) Temp. Windchill Dew Point Humidity Pressure Visibility Wind Dir Wind Speed Gust Speed Precip Events Conditions
12:15 AM 38.7 °F - 31.6 °F 76% 29.72 in 10.0 mi Calm Calm - N/A   Clear
12:35 AM 40.3 °F - 31.6 °F 71% 29.72 in 10.0 mi Calm Calm - N/A   Clear
12:36 AM 40.6 °F - 31.8 °F 71% 29.72 in 10.0 mi Calm Calm - N/A   Clear
12:59 AM 40.8 °F 38.8 °F 31.5 °F 69% 29.72 in 10.0 mi SW 3.5 mph - N/A   Clear
1:16 AM 40.8 °F 38.8 °F 31.3 °F 69% 29.72 in 10.0 mi SW 3.5 mph - N/A   Clear
1:36 AM 41.0 °F - 32.0 °F 70% 29.72 in 10.0 mi Calm Calm - N/A   Clear
1:55 AM 40.3 °F - 31.3 °F 70% 29.72 in 10.0 mi Calm Calm - N/A   Clear
2:15 AM 37.4 °F - 30.9 °F 77% 29.72 in 10.0 mi Calm Calm - N/A   Clear
2:19 AM 37.8 °F - 31.1 °F 77% 29.72 in 10.0 mi Calm Calm - N/A   Clear
2:38 AM 37.0 °F - 30.9 °F 79% 29.74 in 10.0 mi Calm Calm - N/A   Clear
2:55 AM 36.5 °F - 30.9 °F 80% 29.74 in 10.0 mi Calm Calm - N/A   Clear
3:15 AM 37.2 °F - 31.5 °F 80% 29.74 in 10.0 mi Calm Calm - N/A   Clear
3:16 AM 37.4 °F - 31.5 °F 79% 29.74 in 10.0 mi Calm Calm - N/A   Clear
3:36 AM 35.1 °F - 30.4 °F 83% 29.74 in 10.0 mi Calm Calm - N/A   Clear
3:58 AM 34.5 °F 31.6 °F 31.3 °F 88% 29.75 in 10.0 mi SSE 3.5 mph - N/A   Clear
4:17 AM 32.5 °F - 29.5 °F 88% 29.75 in 10.0 mi Calm Calm - N/A   Clear
4:36 AM 32.5 °F 28.1 °F 30.4 °F 92% 29.76 in 10.0 mi South 4.6 mph - N/A   Clear
4:55 AM 31.1 °F 27.7 °F 28.8 °F 91% 29.76 in 10.0 mi SE 3.5 mph - N/A   Clear
5:15 AM 31.3 °F - 29.7 °F 94% 29.77 in 10.0 mi Calm Calm - N/A   Clear
5:19 AM 31.3 °F - 29.3 °F 92% 29.77 in 10.0 mi Calm Calm - N/A   Clear
5:38 AM 31.5 °F - 29.1 °F 91% 29.78 in 10.0 mi Calm Calm - N/A   Clear
5:55 AM 31.5 °F - 28.8 °F 90% 29.78 in 10.0 mi Calm Calm - N/A   Clear
6:15 AM 31.6 °F - 30.0 °F 94% 29.78 in 10.0 mi Calm Calm - N/A   Clear
6:16 AM 31.6 °F - 29.8 °F 93% 29.78 in 10.0 mi Calm Calm - N/A   Clear
6:35 AM 32.0 °F - 30.2 °F 93% 29.78 in 10.0 mi Calm Calm - N/A   Clear
6:36 AM 32.0 °F - 29.8 °F 92% 29.78 in 10.0 mi Calm Calm - N/A   Clear
6:58 AM 30.6 °F - 28.6 °F 92% 29.79 in 10.0 mi Calm Calm - N/A   Clear
7:17 AM 30.0 °F - 28.6 °F 94% 29.79 in 10.0 mi Calm Calm - N/A   Clear
7:36 AM 31.1 °F - 29.1 °F 92% 29.80 in 10.0 mi Calm Calm - N/A   Clear
7:55 AM 31.5 °F - 29.1 °F 91% 29.80 in 10.0 mi Calm Calm - N/A   Clear
7:56 AM 31.5 °F - 29.3 °F 92% 29.80 in 10.0 mi Calm Calm - N/A   Clear
8:15 AM 32.0 °F - 29.5 °F 90% 29.81 in 10.0 mi Calm Calm - N/A   Clear
8:19 AM 32.0 °F - 30.0 °F 92% 29.81 in 10.0 mi Calm Calm - N/A   Clear
8:38 AM 32.4 °F - 30.6 °F 93% 29.81 in 10.0 mi Calm Calm - N/A   Clear
8:55 AM 33.8 °F - 32.0 °F 93% 29.82 in 10.0 mi Calm Calm - N/A   Clear
9:15 AM 37.4 °F - 34.5 °F 89% 29.82 in 10.0 mi Calm Calm - N/A   Clear
9:16 AM 37.6 °F - 34.7 °F 89% 29.82 in 10.0 mi Calm Calm - N/A   Clear
9:35 AM 40.6 °F - 37.0 °F 87% 29.82 in 10.0 mi Calm Calm - N/A   Clear
9:58 AM 44.2 °F 41.8 °F 37.6 °F 77% 29.82 in 10.0 mi SE 4.6 mph - N/A   Clear
10:17 AM 47.1 °F - 38.5 °F 72% 29.82 in 10.0 mi Calm Calm - N/A   Clear
10:36 AM 49.3 °F - 39.9 °F 70% 29.82 in 10.0 mi ESE 3.5 mph - N/A   Clear
10:55 AM 50.0 °F - 40.5 °F 70% 29.83 in 10.0 mi ESE 4.6 mph - N/A   Clear
10:56 AM 50.2 °F - 40.3 °F 69% 29.83 in 10.0 mi ESE 4.6 mph - N/A   Clear
11:15 AM 54.1 °F - 41.2 °F 62% 29.83 in 10.0 mi ESE 4.6 mph - N/A   Clear
11:37 AM 54.5 °F - 38.8 °F 56% 29.83 in 10.0 mi SE 8.1 mph - N/A   Clear
11:55 AM 55.4 °F - 40.3 °F 57% 29.83 in 10.0 mi ESE 4.6 mph - N/A   Clear
12:15 PM 57.2 °F - 38.1 °F 49% 29.83 in 10.0 mi SE 9.2 mph - N/A   Clear
12:16 PM 57.0 °F - 37.9 °F 49% 29.83 in 10.0 mi SE 8.1 mph - N/A   Clear
12:35 PM 57.4 °F - 39.4 °F 51% 29.83 in 10.0 mi ESE 5.8 mph - N/A   Clear
12:36 PM 57.6 °F - 39.9 °F 52% 29.83 in 10.0 mi SE 5.8 mph - N/A   Clear
12:58 PM 58.5 °F - 38.8 °F 48% 29.82 in 10.0 mi SE 6.9 mph - N/A   Clear
1:17 PM 58.1 °F - 38.5 °F 48% 29.82 in 10.0 mi SE 8.1 mph - N/A   Clear
1:36 PM 58.3 °F - 40.3 °F 51% 29.82 in 10.0 mi ESE 5.8 mph - N/A   Scattered Clouds
1:55 PM 58.5 °F - 38.1 °F 47% 29.81 in 10.0 mi SE 6.9 mph - N/A   Mostly Cloudy
1:56 PM 58.5 °F - 38.3 °F 47% 29.81 in 10.0 mi SE 8.1 mph - N/A   Scattered Clouds
2:15 PM 58.5 °F - 37.8 °F 46% 29.80 in 10.0 mi SE 8.1 mph - N/A   Clear
2:19 PM 58.5 °F - 38.3 °F 47% 29.80 in 10.0 mi SE 8.1 mph - N/A   Clear
2:37 PM 58.3 °F - 38.8 °F 48% 29.80 in 10.0 mi ESE 5.8 mph - N/A   Clear
2:55 PM 57.6 °F - 39.7 °F 51% 29.79 in 10.0 mi ESE 6.9 mph - N/A   Clear
3:15 PM 57.6 °F - 39.6 °F 51% 29.79 in 10.0 mi ESE 4.6 mph - N/A   Clear
3:16 PM 57.6 °F - 39.7 °F 51% 29.79 in 10.0 mi ESE 5.8 mph - N/A   Clear
3:35 PM 57.2 °F - 39.9 °F 52% 29.80 in 10.0 mi ESE 3.5 mph - N/A   Scattered Clouds
3:36 PM 57.2 °F - 39.9 °F 52% 29.80 in 10.0 mi ESE 3.5 mph - N/A   Scattered Clouds
3:58 PM 57.4 °F - 39.7 °F 52% 29.80 in 10.0 mi East 4.6 mph - N/A   Mostly Cloudy
4:17 PM 56.7 °F - 39.9 °F 54% 29.80 in 10.0 mi East 4.6 mph - N/A   Overcast
4:36 PM 56.8 °F - 40.5 °F 54% 29.79 in 10.0 mi ENE 6.9 mph - N/A   Mostly Cloudy
4:55 PM 56.8 °F - 39.4 °F 52% 29.78 in 10.0 mi ENE 6.9 mph - N/A   Scattered Clouds
5:15 PM 56.7 °F - 39.2 °F 52% 29.78 in 10.0 mi East 6.9 mph - N/A   Scattered Clouds
5:19 PM 56.7 °F - 39.2 °F 52% 29.78 in 10.0 mi East 5.8 mph - N/A   Scattered Clouds
5:38 PM 56.5 °F - 38.7 °F 51% 29.78 in 10.0 mi ENE 6.9 mph - N/A   Mostly Cloudy
5:56 PM 55.8 °F - 38.7 °F 53% 29.78 in 10.0 mi ENE 6.9 mph - N/A   Mostly Cloudy
6:15 PM 55.2 °F - 38.7 °F 54% 29.78 in 10.0 mi East 5.8 mph - N/A   Overcast
6:16 PM 55.2 °F - 38.7 °F 54% 29.78 in 10.0 mi East 5.8 mph - N/A   Overcast
6:35 PM 53.8 °F - 38.8 °F 57% 29.77 in 10.0 mi East 6.9 mph - N/A   Overcast
6:36 PM 54.0 °F - 38.7 °F 56% 29.77 in 10.0 mi East 6.9 mph - N/A   Overcast
6:58 PM 54.1 °F - 38.5 °F 55% 29.77 in 10.0 mi East 6.9 mph - N/A   Mostly Cloudy
7:17 PM 53.8 °F - 38.3 °F 56% 29.77 in 10.0 mi East 8.1 mph - N/A   Scattered Clouds
7:36 PM 52.7 °F - 38.7 °F 59% 29.77 in 10.0 mi East 6.9 mph - N/A   Clear
7:55 PM 52.2 °F - 38.3 °F 59% 29.77 in 10.0 mi East 8.1 mph - N/A   Clear
8:15 PM 51.8 °F - 38.7 °F 61% 29.77 in 10.0 mi East 8.1 mph - N/A   Clear
8:19 PM 51.8 °F - 38.5 °F 60% 29.77 in 10.0 mi East 9.2 mph - N/A   Scattered Clouds
8:38 PM 52.0 °F - 38.3 °F 60% 29.77 in 10.0 mi East 9.2 mph - N/A   Scattered Clouds
8:55 PM 52.2 °F - 37.9 °F 58% 29.76 in 10.0 mi East 10.4 mph - N/A   Scattered Clouds
9:15 PM 52.0 °F - 37.9 °F 59% 29.75 in 10.0 mi East 10.4 mph - N/A   Scattered Clouds
9:16 PM 52.0 °F - 37.9 °F 59% 29.75 in 10.0 mi East 11.5 mph - N/A   Mostly Cloudy
9:35 PM 52.9 °F - 37.8 °F 56% 29.74 in 10.0 mi East 11.5 mph - N/A   Mostly Cloudy
9:58 PM 54.0 °F - 37.9 °F 55% 29.74 in 10.0 mi East 10.4 mph 16.1 mph N/A   Mostly Cloudy
10:17 PM 54.0 °F - 38.3 °F 55% 29.74 in 10.0 mi East 10.4 mph - N/A   Overcast
10:36 PM 54.1 °F - 38.3 °F 55% 29.74 in 10.0 mi East 11.5 mph 17.3 mph N/A   Overcast
10:55 PM 53.8 °F - 38.5 °F 56% 29.74 in 10.0 mi ESE 10.4 mph - N/A   Overcast
10:56 PM 53.8 °F - 38.5 °F 56% 29.74 in 10.0 mi ESE 10.4 mph - N/A   Overcast
11:15 PM 53.1 °F - 39.4 °F 60% 29.74 in 10.0 mi ESE 10.4 mph - N/A   Overcast
11:19 PM 53.1 °F - 39.4 °F 60% 29.74 in 10.0 mi ESE 9.2 mph - N/A   Overcast
11:37 PM 53.4 °F - 39.2 °F 59% 29.72 in 10.0 mi East 9.2 mph - N/A   Overcast
11:55 PM 53.4 °F - 39.4 °F 59% 29.73 in 10.0 mi East 8.1 mph - N/A   Overcast